Content
SEND FEEDBACK

Daily
Averages
Monthly
Summary
Malta

VALLETTA, MALTA


Home > Europe > Malta
Elevation: 299 feet     Latitude: 35 51N     Longitude: 014 29E

WEATHER
 
SELECT A DAY
Number of Records: 310,745;   Date Range: 7/1/96 - 8/31/14
 
SHARE

PRINT THIS DATA

[ ← Previous Day ]
WEATHER ALMANAC - OCTOBER 25, 2013
[ Next Day → ]
[ °C ]   °F
Weather ElementAverageHighLow
Temperature72.8 °F78.8 °F (1:15 pm)66.2 °F (11:45 pm)
Dewpoint61 °F64.4 °F (2:45 am)58 °F (8:00 pm)
Humidity66.1 %83 % (12:43 am)46 % (5:00 pm)
Barometer30.15 in30.18 in (9:45 am)30.12 in (4:45 am)
Wind Speed5.3 mph11.5 mph (12:15 pm)
Weather ElementAverage
Visibility7 mi
Wind DirectionSSE (170.6 °)

Weather ElementTotal
Precipitation---
Cooling Degree Days7.5 (Base 65)
Growing Degree Days22.5 (Base 50)
Averaged from 55 records on October 25, 2013
WEATHER CONDITIONS BREAKOUT
WIND DIRECTION BREAKOUT
WEATHER BY HOUR - OCTOBER 25, 2013
[ °C ]   °F
Local TimeTemperatureDewpointHumidityBarometerVisibilityWind DirectionWind SpeedGust SpeedPrecipitationEventsConditions
12:43 AM68.0 °F62.6 °F83 %30.15 inWNW (300°)2.3 mphClear
12:45 AM68.0 °F62.6 °F83 %30.15 inWNW (300°)2.3 mphClear
1:15 AM68.0 °F62.6 °F83 %30.15 inWNW (300°)2.3 mphClear
1:45 AM68.0 °F62.6 °F83 %30.15 in6.2 miVariable1.2 mphMostly Cloudy
2:00 AM68.0 °F63.0 °F79 %30.17 in9.0 miCalm
2:15 AM68.0 °F62.6 °F83 %30.15 in6.2 miVariable2.3 mphOvercast
2:45 AM69.8 °F64.4 °F83 %30.15 in6.2 miVariable1.2 mphOvercast
3:15 AM69.8 °F64.4 °F83 %30.15 inVariable2.3 mphClear
3:45 AM71.6 °F64.4 °F78 %30.15 in6.2 miSW (220°)5.8 mphOvercast
4:15 AM71.6 °F62.6 °F73 %30.15 in6.2 miWSW (240°)4.6 mphOvercast
4:45 AM71.6 °F62.6 °F73 %30.12 in6.2 miSW (220°)4.6 mphOvercast
5:00 AM72.0 °F63.0 °F65 %30.14 in14.0 miSW (230°)5.8 mphPartly Cloudy
5:15 AM71.6 °F62.6 °F73 %30.12 in6.2 miSW (230°)4.6 mphScattered Clouds
5:45 AM71.6 °F62.6 °F73 %30.12 in6.2 miWSW (250°)3.5 mphScattered Clouds
6:15 AM69.8 °F64.4 °F83 %30.12 in6.2 miVariable1.2 mphScattered Clouds
6:45 AM71.6 °F60.8 °F69 %30.12 in6.2 miSSW (210°)5.8 mphScattered Clouds
7:15 AM71.6 °F60.8 °F69 %30.12 in6.2 miVariable2.3 mphMostly Cloudy
7:45 AM71.6 °F62.6 °F73 %30.15 in6.2 miVariable2.3 mphScattered Clouds
8:15 AM73.4 °F62.6 °F69 %30.15 in6.2 miSW (220°)4.6 mphScattered Clouds
8:45 AM75.2 °F62.6 °F65 %30.15 in6.2 miSSW (210°)6.9 mphScattered Clouds
9:15 AM75.2 °F60.8 °F61 %30.15 in6.2 miSSW (210°)6.9 mphScattered Clouds
9:45 AM75.2 °F60.8 °F61 %30.18 in6.2 miSW (220°)8.1 mphScattered Clouds
10:15 AM75.2 °F62.6 °F65 %30.18 in6.2 miSW (220°)6.9 mphScattered Clouds
10:45 AM77.0 °F62.6 °F61 %30.18 in6.2 miSSW (200°)9.2 mphScattered Clouds
11:00 AM77.0 °F62.0 °F49 %30.17 in12.0 miSSW (210°)9.2 mphPartly Cloudy
11:15 AM77.0 °F60.8 °F57 %30.18 in6.2 miSSW (200°)9.2 mphScattered Clouds
11:45 AM77.0 °F60.8 °F57 %30.18 in6.2 miSSW (210°)10.4 mphScattered Clouds
12:15 PM77.0 °F60.8 °F57 %30.18 in6.2 miSSW (210°)11.5 mphScattered Clouds
12:45 PM77.0 °F60.8 °F57 %30.18 in6.2 miSSW (210°)10.4 mphScattered Clouds
1:15 PM78.8 °F60.8 °F54 %30.15 in6.2 miSSW (210°)10.4 mphScattered Clouds
1:45 PM78.8 °F60.8 °F54 %30.15 in6.2 miSSW (210°)10.4 mphScattered Clouds
2:00 PM78.0 °F61.0 °F47 %30.15 in12.0 miSW (230°)11.5 mph
2:15 PM77.0 °F60.8 °F57 %30.15 in6.2 miSSW (210°)10.4 mphScattered Clouds
2:45 PM77.0 °F60.8 °F57 %30.12 in6.2 miSSW (210°)10.4 mphPartly Cloudy
3:15 PM77.0 °F60.8 °F57 %30.12 inSW (220°)9.2 mphClear
3:45 PM77.0 °F59.0 °F54 %30.12 in6.2 miSSW (210°)8.1 mphPartly Cloudy
4:15 PM77.0 °F59.0 °F54 %30.12 in6.2 miSSW (200°)8.1 mphPartly Cloudy
4:45 PM77.0 °F59.0 °F54 %30.12 in6.2 miSW (220°)8.1 mphPartly Cloudy
5:00 PM76.0 °F59.0 °F46 %30.13 in12.0 miSSW (200°)6.9 mphScattered Clouds
5:15 PM75.2 °F60.8 °F61 %30.12 in6.2 miSW (230°)6.9 mphPartly Cloudy
5:45 PM75.2 °F59.0 °F57 %30.12 in6.2 miSSW (210°)6.9 mphPartly Cloudy
6:15 PM73.4 °F59.0 °F61 %30.15 in6.2 miSSW (210°)4.6 mphPartly Cloudy
6:45 PM73.4 °F59.0 °F61 %30.15 in6.2 miSW (220°)3.5 mphPartly Cloudy
7:15 PM71.6 °F59.0 °F64 %30.15 inSSW (210°)2.3 mphClear
7:45 PM71.6 °F59.0 °F64 %30.15 inVariable3.5 mphClear
8:00 PM72.0 °F58.0 °F53 %30.16 in9.0 miSouth (190°)3.5 mph
8:15 PM71.6 °F59.0 °F64 %30.15 inSouth (180°)3.5 mphClear
8:45 PM71.6 °F59.0 °F64 %30.15 inSouth (180°)3.5 mphClear
9:15 PM69.8 °F59.0 °F68 %30.15 inCalmClear
9:45 PM69.8 °F59.0 °F68 %30.18 inVariable1.2 mphClear
10:15 PM68.0 °F59.0 °F73 %30.18 inSSE (160°)2.3 mphClear
10:45 PM68.0 °F59.0 °F73 %30.18 inSSE (160°)2.3 mphClear
11:00 PM69.0 °F60.0 °F65 %30.18 in9.0 miSSE (160°)2.3 mph
11:15 PM68.0 °F60.8 °F78 %30.18 inSSE (160°)2.3 mphClear
11:45 PM66.2 °F59.0 °F78 %30.18 inVariable1.2 mphClear
Hourly data recorded from LMML, located miles away from Valletta, Malta







STORIES FROM OUR PARTNERS